Flag for Canada Weather past 2 weeks in Denare Beach, Saskatchewan, Canada

37 °F


Feels Like: 37 °F
Forecast: 37 / 51 °F
Wind: 2 mph from Northeast

Location: The Pas

Current Time: Oct 8, 2015 at 10:28:36 PM

Latest Report: Oct 8, 2015 at 10:00 PM

Visibility: 15 mi

Pressure: 30.19 "Hg

Humidity: 75%

Dew point: 30 °F

Location of Denare BeachLocation

Historic Weather in Denare Beach — Graph


Denare Beach temperature yesterday

Maximum temperature yesterday: 50 °F (at 4:00 PM)
Minimum temperature yesterday: 28 °F (at 12:00 AM)
Average temperature yesterday: 41 °F

Past Weeks' High & Low Weather Summary

High72 °F (Sep 25, 6:00 PM)100% (Sep 25, 5:00 AM)30.36 "Hg (Sep 25, 5:00 AM)
Low25 °F (Sep 29, 7:00 AM)36% (Sep 27, 3:00 PM)29.62 "Hg (Sep 27, 6:00 PM)
Average49 °F77%30.06 "Hg
* Reported Sep 23 9:00 PM — Oct 8 9:00 PM, Denare Beach, Weather by CustomWeather, © 2015

Note: Actual official high and low records may vary slightly from our data, if they occured in-between our weather recording intervals... More about our weather records


Denare Beach weather history for previous 24 hours

Time TempWeatherWind HumidityBarometerVisibility
9:00 PM
Thu, Oct 8
46 °FClear.5 mph53%30.19 "Hg15 mi
8:00 PM50 °FPassing clouds.7 mph47%30.17 "Hg15 mi
7:00 PM50 °FPassing clouds.8 mph47%30.16 "Hg15 mi
6:00 PM54 °FPassing clouds.13 mph41%30.15 "Hg15 mi
5:00 PM55 °FPassing clouds.15 mph36%30.13 "Hg15 mi
4:00 PM55 °FPassing clouds.21 mph38%30.12 "Hg15 mi
3:00 PM55 °FPassing clouds.14 mph44%30.12 "Hg15 mi
2:00 PM54 °FPassing clouds.8 mph47%30.11 "Hg15 mi
1:00 PM52 °FPassing clouds.9 mph67%30.12 "Hg15 mi
12:00 PM48 °FPassing clouds.9 mph76%30.11 "Hg15 mi
11:00 AM46 °FPassing clouds.8 mph82%30.10 "Hg15 mi
10:00 AM41 °FPassing clouds.3 mph93%30.09 "Hg15 mi
9:00 AM37 °FLight fog.5 mph100%30.07 "Hg15 mi
8:00 AM37 °FLight fog.3 mph93%30.05 "Hg10 mi
7:00 AM37 °FFog.2 mph100%30.03 "Hg15 mi
6:00 AM37 °FClear.6 mph100%30.02 "Hg15 mi
5:00 AM39 °FClear.9 mph93%30.00 "Hg15 mi
4:00 AM36 °FClear.2 mph100%30.00 "Hg15 mi
3:00 AM37 °FPassing clouds.2 mph100%29.99 "Hg15 mi
2:00 AM37 °FPassing clouds.3 mph100%29.99 "Hg15 mi
1:00 AM37 °FPassing clouds.6 mph100%29.99 "Hg15 mi
12:00 AM39 °FPassing clouds.6 mph93%30.00 "Hg15 mi
11:00 PM
Wed, Oct 7
39 °FPassing clouds.6 mph93%29.99 "Hg15 mi
10:00 PM43 °FPassing clouds.7 mph81%29.98 "Hg15 mi
Weather by CustomWeather, © 2015

See weather overviewHow to use our weather pages